Find Starlink 3922

NORAD ID: 52584 Int'l Des: 2022-051 Owner: SPXS Country: US Constellation: starlink operational
LEOCIRCULAR

現在のビュー

3D地球を読み込み中...

Starlink 3922について

説明を読み込み中...

次回通過

Passes for default location (London). Set your location on the main map for personalized predictions.

高度履歴

Loading altitude history...

軌道要素

1 52584U 22051BA 26151.14677411 .00001100 00000-0 87237-4 0 9993
2 52584 53.1946 108.9454 0001571 65.1685 294.9470 15.08836423224036
Epoch: May 31, 2026 • Age: 7 hours

現在のステータス

高度 540.4 km
速度 7.60 km/s
衛星直下点 29.07°N, 92.55°E
打ち上げ日 May 13, 2022
運用期間 4 years
タイプ internet

技術仕様

分類 Payload
質量 297.00 kg
乾燥質量 275.00 kg
総質量 297.00 kg
長さ 0.20 m
直径 2.80 m
スパン 9.00 m
形状 Box + pan
製造者 SPXS
バスタイプ Starlink
フェーズステータス In Orbit
所有者/国 SPXS/US

Most Searched